User: anonymous   Login
Location: Unspecified
(0.0000°N, 0.0000°E)
Time: 15:33:44
(UTC+00:00)
Language:

GEOS 3 - Orbit

View from above orbital plane
View from above orbital plane
View from above satellite
View from above satellite

Ground track
Ground track

The orbit data is extracted from the following two-line orbital elements,

1 07734U 75027A   18115.76866449 -.00000151  00000-0  11928-4 0  9991
2 07734 114.9869  41.8697 0026624 285.5476  74.2664 14.18618968227544
Epoch (UTC): 25 April 2018 18:26:52
Eccentricity: 0.0026624
inclination: 114.9869°
perigee height: 811 km
apogee height: 849 km
right ascension of ascending node: 41.8697°
argument of perigee: 285.5476°
revolutions per day: 14.18618968
mean anomaly at epoch: 74.2664°
orbit number at epoch: 22754

The dashed part of the orbit path shows where the satellite is in the earth's shadow,  

DLR